Погода в Мерса-Матрухе

Египет     31°19′23″N   27°16′01″E
темп.,
°C
ветер,
м/с
пор.,
м/с
влажн.,
%
обл.,
%
осадки,
мм/ч
давл.,
гПа
погр.,
м
11 мая, вт
вт1123:00+17ссв33770 0.0 101447
02:00+16ссз33810 0.0 101337
05:00+16ссз33820 0.0 101332
08:00+19сз33610 0.0 1014529
11:00+24с43370 0.0 1013855
14:00+25ссз54350 0.0 1012806
17:00+22ссв54430 0.0 1012507
20:00+19ссв34660 0.0 1012110
12 мая, ср
ср1223:00+17с22740 0.0 101318
02:00+16зюз11790 0.0 101117
05:00+14з11810 0.0 101117
08:00+19св11540 0.0 1012294
11:00+25ссв22272 0.0 1012926
14:00+26св53320 0.0 1011760
17:00+23ссв55384 0.0 1011434
20:00+19ссв336284 0.0 101371
13 мая, чт
чт1323:00+18св11690 0.0 101311
02:00+17юв11700 0.0 101212
05:00+16ююв11650 0.0 101212
08:00+21св11400 0.0 1014246
11:00+27ссв22230 0.0 1014821
14:00+27ссв53270 0.0 1013678
17:00+25ссв54330 0.0 1013391
20:00+21св33530 0.0 101462
14 мая, пт
пт1423:00+20всв33590 0.0 101445
02:00+19вюв33610 0.0 101329
05:00+18всв22650 0.0 101412
08:00+22св33490 0.0 1015364
11:00+26св43350 0.0 1016679
14:00+27св533412 0.0 1016789
17:00+24св55483 0.0 1015454
20:00+20св46730 0.0 1016231
15 мая, сб
сб1523:00+19св35770 0.0 1016110
02:00+18ссв33820 0.0 101533
05:00+18ссв33870 0.0 101523
08:00+21ссв23590 0.0 1016355
11:00+26ссв43365 0.0 1015660
14:00+28ссв43320 0.0 1014679
17:00+25ссв44405 0.0 1013391
20:00+20св34660 0.0 101386